Location: Dvur Kralove nad Labem
(50.4330°N, 15.8170°E)
Time: 17:14:05
(UTC+01:00)

ISS - Pass Details

Date: 12 November 2018
Orbit: 401 x 408 km, 51.6° (Epoch: 20 November)

Event Time Altitude Azimuth Distance (km) Brightness Sun altitude
Exits shadow 05:51:32 15° 248° (WSW) 1,201 -1.9 -11.9°
Maximum altitude 05:52:49 18° 219° (SW) 1,068 -1.9 -11.7°
Drops below altitude 10° 05:55:08 10° 173° (S) 1,458 -0.7 -11.3°
Sets 05:57:38 0° 154° (SSE) 2,315 0.7 -10.9°
